Погода Соболево

Погода Соболево : погода сейчас, прогноз погоды и архив. Всё, что Вы хотите узнать о погоде Соболево!

Поиск расширенной информации на нашем сайте:

Другие новости

Новости СМИ2

Главная страница сайта

Новости сайта

03.07.2017

Напоминаем, что на нашем специализированном сайте Метеоцентр.Азия вы можете получить высокодетализированные автоматические прогнозы погоды по пунктам России, СНГ и мира в авиационном формате (включающие направление и скорость ветра, видимость, явления погоды, количество и форму облачности, нижнюю и верхнюю границу облачности).


Погода Соболево - сегодня

Время (UTC), дата Ветер
(°,м/с) 
Видим.   Явления Облачность Т
(°С)
Тd
(°С)
f(%) Тe
(°С)
Pmin
(гПа)
dP
(гПа)
Po
(мм)
O2
(г/м3)
Тmin Tmax R s Состояние
почвы
06 19.05.18 270 (З) 20000 м    10/0 верхняя 
[Ci fib]
+11.9 -3 35 +12  1012.6  1.5  757  293           
12 19.05.18 150 (ЮВ) 20000 м    3/0 верхняя 
[Ci fib]
+1.9 +1 94 +3  1017.9  2.5  761  304           
15 19.05.18 120 (ЮВ) 20000 м    3/0 верхняя 
[Ci fib]
+1.3 +0.8 96 +2  1019.4  1.5  762  306           
18 19.05.18 тихо ()   20000 м    10/0 верхняя 
[Ci fib]
-0.5 -0.9 97 -1  1019.8  0.4  762  308           
00 20.05.18 210 (ЮЗ) 20000 м    9/0 верхняя 
[Ci fib]
+8.4 +3.1 69 +8  1020.4  -0.6  763  298           
03 20.05.18 260 (З) 20000 м    8/0 верхняя 
[Cs]
+9.6 +2.1 59 +9  1019.3  -1.1  762  296           
06 20.05.18 300 (СЗ) 20000 м    9/0 верхняя 
[Cs]
+10 +4.4 68 +9  1018.1  -1.2  761  295           
12 20.05.18 тихо ()   20000 м    3/0 верхняя 
[Ci fib]
+3.8 +3 94 +4  1016.3  -0.4  760  302           
15 20.05.18 090 (В) 20000 м    3/0 верхняя 
[Ci fib]
+2.1 +1.6 96 +3  1015.7  -0.6  759  303           
18 20.05.18 040 (СВ) 20000 м    10/0 верхняя 
[Ci fib]
+2 +1.5 96 +1  1014.8  -0.9  759  303           
00 21.05.18 250 (З) 20000 м    10/0 верхняя 
[Ci fib]
+16.1 +3.2 42 +17  1010.1  -2.8  755  287           
03 21.05.18 270 (З) 20000 м    10/0 верхняя 
[Ci fib]
+16.9 +1.6 36 +17  1006.4  -3.6  753  285           
06 21.05.18 210 (ЮЗ) 20000 м    10/0 верхняя 
[Ci fib]
+10.2 +4.7 69 +9  1004.3  -2.2  751  291           
12 21.05.18 310 (СЗ) 20000 м    10/6 600 м верхняя 
[Sc|Ci fib]
+8.5 +3.7 72 +10  999.5  -2.8  747  291           
15 21.05.18 030 (СВ) 20000 м    10/4 600 м верхняя 
[Sc|Ci fib]
+7 +3.3 77 +7  996.6  -2.8  745  292           
18 21.05.18 320 (СЗ) 10 км    10/10 600 м 
[Sc]
+3.9 +1.3 83 +3  996.3  -0.4  745  296           
21 21.05.18 300 (СЗ) 10 км  {ливн. осадки}  10/10 600 м 
[Sc]
+3.9 +1.9 87 +2  994.8  -1.4  744  295  +3.6        влажная 
00 22.05.18 320 (СЗ) 5-10{11}  10 км  слаб. ливневой дождь  10/10 300 м кучево-дожд. 
[Cb cap]
+3.2 +1.7 90 +1  994.5  -0.3  744  296  +3.1         
06 22.05.18 310 (СЗ) 10 км  {ливн. осадки}  10/10 300 м 
[St]
+2.8 +1.1 89 +1  994  0.1  743  296           
12 22.05.18 280 (З) 10 км  {ливн. осадки}  10/10 300 м 
[St]
+1.5 +0.8 95 +2  995.6  0.7  744  298           
15 22.05.18 250 (З) 10 км  слаб. ливневой дождь  10/10 300 м кучево-дожд. 
[Cb cap]
+1.4 +0.6 94 +2  995.9  0.3  745  298           
18 22.05.18 180 (Ю) 10 км  {ливн. осадки}  10/10 300 м 
[St]
+1.9 +1.3 96 +3  996.9  745  298           
00 23.05.18 тихо ()   10 км    10/10 600 м 
[Sc]
+4.3 +2.2 86 +4  999.8  1.4  748  296           
03 23.05.18 290 (З) 10 км    10/10 600 м 
[Sc]
+5.6 +2.6 81 +5  1000.9  1.1  748  295           
06 23.05.18 320 (СЗ) 10 км    10/10 1000 м 
[Sc]
+7.8 +1.7 65 +7  1002.3  1.5  749  293           
Время (UTC), дата Ветер
(°,м/с) 
Видим.   Явления Облачность Т
(°С)
Тd
(°С)
f(%) Тe
(°С)
Pmin
(гПа)
dP
(гПа)
Po
(мм)
O2
(г/м3)
Тmin Tmax R s Состояние
почвы

Для получения пояснительной информации подведите курсор к названию столбца.

ПОГОДА Соболево - архив

Всё, что Вы хотите узнать о погоде Соболево - удобно и подробно!

Выберите нужную дату (начиная с 1 января 2015* года) и нажмите кнопку "Найти".
Будут отображены архивные сводки погоды по пункту Соболево, начиная с указанной даты.


Отображать данные в формате CSV (для использования в таблицах Excel)


Внимание! Наш архив погоды предназначен исключительно для личного некоммерческого использования в познавательных целях. Если Вам необходимы официальные справки о состоянии погоды (для производственных, юридических, коммерческих и т.п. целей), обращайтесь в органы Росгидромета.

*Примечание: данная дата относится к архиву по метеостанциям СССР (Россия, СНГ, Балтия).
Архив по метеостанциям Зарубежной Европы и Азии (кроме Китая) хранится 10 дней, по другим регионам земного шара (Китай, Африка, Америка, Австралия, Океания) - 1 день.

Соболево - район местоположения метеостанции


Название, широта, долгота, высота метеостанции:
Соболево 54.30°ш. 155.93°д. 14 м над ур. моря [Российская Федерация]

Дополнительная информация

В oтличие oт бoльшинства пoгoдных сайтoв мы публикуем пoдрoбную метеoинфoрмацию в детальнoм прoфессиoнальнoм фoрмате.

Характеристики температуры и влажнoсти вoздуха измеряются на высoте 2 м в тени вдали oт зданий и деревьев.
Скoрoсть ветра измеряется на высoте 10 м (на урoвне рoста челoвека скoрoсть ветра ниже в 1.5-2 раза). Если метеoстанция нахoдится в гoрoде или в лесу, тo скoрoсть ветра занижена на 2-4 м/с пo сравнению с oткрытым местoм. Скoрoсть ветра над акватoриями крупных рек и oзёр, а также на вершинах хoлмoв на 2-5 м/с выше, чем в oбычных услoвиях.
Атмoсфернoе давление в разных тoчках местнoсти мoжет значительнo oтличаться oт давления на метеoстанции, в зависимoсти oт услoвий рельефа (при пoдъёме на 10 м давление пoнижается примернo на 1 мм рт.ст.).